Weather History for Racine, WI

Change the Weather History Date:

Monday, February 11, 2013

  Actual Average Record
Temperature  
Mean Temperature 34 °F -  
Max Temperature 41 °F 29 °F 64 °F (1999)
Min Temperature 27 °F 17 °F -11 °F (1982)
Degree Days  
Heating Degree Days 30    
Moisture  
Dew Point 24 °F    
Average Humidity 73    
Maximum Humidity 82    
Minimum Humidity 64    
Precipitation  
Precipitation 0.00 in - - ()
Sea Level Pressure  
Sea Level Pressure 29.71 in    
Wind  
Wind Speed 17 mph (WSW)    
Max Wind Speed 24 mph    
Max Gust Speed 44 mph    
Visibility 9 miles    
Events Snow    
Averages and records for this station are not official NWS values.
T = Trace of Precipitation, MM = Missing Value Source: NWS Daily Summary

Daily Weather History Graph

Daily Weather History Graph

Search for Another Location

Airport:

Trip Planner

Search our weather history database for the weather conditions in past years. The results will help you decide how hot, cold, wet, or windy it might be!

Date:

Astronomy

Feb. 11, 2013 Rise Set
Actual Time 6:53 AM CST 5:18 PM CST
Civil Twilight 6:24 AM CST 5:47 PM CST
Nautical Twilight 5:50 AM CST 6:20 PM CST
Astronomical Twilight 5:18 AM CST 6:53 PM CST
Moon 7:14 AM CST (2/11) 7:18 PM CST (2/11)
Length of Visible Light 11h 23m
Length of Day
10h 24m
Waxing Crescent, 3% of the Moon is Illuminated
Feb 11
Waxing Crescent
Feb 17
First Quarter
Feb 25
Full
Mar 4
Last Quarter
Mar 11
New

Hourly Weather History & Observations

Time (CST) Temp. Windchill Dew Point Humidity Pressure Visibility Wind Dir Wind Speed Gust Speed Precip Events Conditions
12:53 AM 41.0 °F 33.1 °F 30.9 °F 67% 29.47 in 10.0 mi SW 15.0 mph 25.3 mph N/A   Overcast
1:53 AM 39.0 °F 30.6 °F 30.0 °F 70% 29.48 in 10.0 mi SW 15.0 mph 28.8 mph N/A   Overcast
2:16 AM 37.4 °F 26.9 °F 30.2 °F 75% 29.46 in 10.0 mi SW 20.7 mph 32.2 mph N/A   Overcast
2:53 AM 37.0 °F 26.7 °F 28.9 °F 73% 29.49 in 10.0 mi SW 19.6 mph 35.7 mph N/A   Overcast
3:53 AM 35.1 °F 24.5 °F 28.0 °F 76% 29.48 in 10.0 mi SW 18.4 mph 34.5 mph N/A   Overcast
4:53 AM 34.0 °F 23.4 °F 27.0 °F 75% 29.50 in 10.0 mi SW 17.3 mph 36.8 mph N/A   Overcast
5:53 AM 34.0 °F 21.5 °F 25.0 °F 70% 29.52 in 10.0 mi WSW 24.2 mph 43.7 mph N/A   Overcast
6:53 AM 33.1 °F 22.2 °F 26.1 °F 75% 29.53 in 10.0 mi WSW 17.3 mph 34.5 mph 0.00 in   Overcast
7:53 AM 33.1 °F 22.6 °F 25.0 °F 72% 29.55 in 10.0 mi WSW 16.1 mph 31.1 mph N/A   Overcast
8:45 AM 32.0 °F 21.6 °F 26.6 °F 80% 29.56 in 1.8 mi WSW 15.0 mph 34.5 mph 0.00 in Snow Light Snow
8:53 AM 32.0 °F 21.6 °F 27.0 °F 82% 29.58 in 2.0 mi WSW 15.0 mph 28.8 mph 0.00 in Snow Light Snow
9:08 AM 32.0 °F 19.8 °F 26.6 °F 80% 29.56 in 4.0 mi WSW 20.7 mph 31.1 mph 0.00 in Snow Light Snow
9:32 AM 32.0 °F 20.1 °F 26.6 °F 80% 29.57 in 2.5 mi WSW 19.6 mph 38.0 mph 0.00 in Snow Light Snow
9:53 AM 32.0 °F 20.1 °F 27.0 °F 82% 29.61 in 6.0 mi WSW 19.6 mph 32.2 mph 0.00 in Snow Light Snow
10:53 AM 32.0 °F 20.8 °F 26.1 °F 79% 29.64 in 10.0 mi West 17.3 mph 38.0 mph N/A   Overcast
11:53 AM 33.1 °F 22.2 °F 26.1 °F 75% 29.67 in 10.0 mi West 17.3 mph 27.6 mph N/A   Overcast
12:53 PM 32.0 °F 20.5 °F 25.0 °F 75% 29.70 in 10.0 mi West 18.4 mph 35.7 mph N/A   Overcast
1:53 PM 32.0 °F 19.8 °F 24.1 °F 73% 29.74 in 10.0 mi West 20.7 mph 35.7 mph N/A   Overcast
2:53 PM 30.9 °F 19.8 °F 23.0 °F 72% 29.78 in 10.0 mi West 16.1 mph 29.9 mph N/A   Overcast
3:53 PM 30.9 °F 19.1 °F 21.9 °F 69% 29.82 in 10.0 mi West 18.4 mph 29.9 mph N/A   Overcast
4:53 PM 30.0 °F 19.5 °F 21.0 °F 69% 29.85 in 10.0 mi West 13.8 mph 31.1 mph N/A   Overcast
5:53 PM 30.0 °F 19.1 °F 21.0 °F 69% 29.89 in 10.0 mi West 15.0 mph 26.5 mph N/A   Overcast
6:46 PM 30.2 °F 19.3 °F 19.4 °F 64% 29.89 in 10.0 mi West 15.0 mph 25.3 mph N/A   Overcast
6:53 PM 30.0 °F 17.2 °F 19.9 °F 66% 29.91 in 10.0 mi West 20.7 mph 28.8 mph N/A   Overcast
7:44 PM 28.4 °F 16.2 °F 21.2 °F 74% 29.91 in 10.0 mi West 17.3 mph 24.2 mph N/A   Overcast
7:53 PM 28.9 °F 17.7 °F 19.9 °F 69% 29.94 in 10.0 mi West 15.0 mph 26.5 mph N/A   Overcast
8:10 PM 28.4 °F 18.0 °F 19.4 °F 69% 29.92 in 10.0 mi West 12.7 mph 21.9 mph N/A   Overcast
8:36 PM 28.4 °F 19.1 °F 19.4 °F 69% 29.93 in 10.0 mi West 10.4 mph 21.9 mph N/A   Overcast
8:53 PM 28.9 °F 18.6 °F 19.9 °F 69% 29.96 in 10.0 mi West 12.7 mph 21.9 mph N/A   Overcast
9:53 PM 28.0 °F 16.5 °F 19.0 °F 69% 29.97 in 10.0 mi West 15.0 mph 21.9 mph N/A   Overcast
10:53 PM 28.0 °F 17.0 °F 19.0 °F 69% 29.99 in 10.0 mi West 13.8 mph 21.9 mph N/A   Overcast
11:53 PM 27.0 °F 17.3 °F 19.0 °F 72% 30.01 in 10.0 mi WNW 10.4 mph 18.4 mph N/A   Overcast